TimeCST,TemperatureF,Dew PointF,Humidity,Sea Level PressureIn,VisibilityMPH,Wind Direction,Wind SpeedMPH,Gust SpeedMPH,PrecipitationIn,Events,Conditions,WindDirDegrees,DateUTC
12:53 AM,55.9,51.1,84,30.22,10.0,SSE,3.5,-,N/A,,Clear,150,2013-01-24 06:53:00
1:53 AM,54.0,51.1,90,30.22,10.0,SSE,4.6,-,N/A,,Partly Cloudy,150,2013-01-24 07:53:00
2:53 AM,52.0,50.0,93,30.23,10.0,SSE,4.6,-,N/A,,Clear,150,2013-01-24 08:53:00
3:53 AM,51.1,51.1,100,30.21,8.0,South,4.6,-,N/A,,Clear,180,2013-01-24 09:53:00
4:53 AM,53.1,52.0,96,30.22,6.0,SE,4.6,-,N/A,,Clear,140,2013-01-24 10:53:00
5:45 AM,51.8,51.8,100,30.22,3.0,SE,5.8,-,N/A,,Partly Cloudy,140,2013-01-24 11:45:00
5:53 AM,52.0,52.0,100,30.23,3.0,SE,4.6,-,N/A,,Scattered Clouds,140,2013-01-24 11:53:00
6:04 AM,51.8,51.8,100,30.23,3.0,SE,5.8,-,N/A,,Mostly Cloudy,140,2013-01-24 12:04:00
6:53 AM,54.0,54.0,100,30.23,3.0,SE,5.8,-,N/A,,Overcast,140,2013-01-24 12:53:00
7:20 AM,53.6,53.6,100,30.23,2.5,SE,5.8,-,N/A,,Overcast,140,2013-01-24 13:20:00
7:33 AM,55.4,55.4,100,30.23,1.2,SSE,5.8,-,N/A,,Overcast,150,2013-01-24 13:33:00
7:53 AM,55.0,55.0,100,30.24,1.2,SSE,4.6,-,N/A,,Overcast,160,2013-01-24 13:53:00
8:35 AM,57.2,57.2,100,30.25,2.5,South,6.9,-,N/A,,Overcast,180,2013-01-24 14:35:00
8:53 AM,57.9,57.9,100,30.25,2.0,South,9.2,-,N/A,,Overcast,180,2013-01-24 14:53:00
9:02 AM,57.2,57.2,100,30.26,1.8,South,8.1,-,N/A,,Overcast,180,2013-01-24 15:02:00
9:13 AM,57.2,57.2,100,30.26,2.0,South,8.1,-,N/A,,Overcast,180,2013-01-24 15:13:00
9:37 AM,59.0,59.0,100,30.27,3.0,SSW,6.9,-,N/A,,Overcast,200,2013-01-24 15:37:00
9:53 AM,60.1,59.0,96,30.26,4.0,South,5.8,-,N/A,,Overcast,190,2013-01-24 15:53:00
10:53 AM,62.1,60.1,93,30.25,9.0,South,6.9,-,N/A,,Overcast,190,2013-01-24 16:53:00
11:38 AM,64.4,60.8,88,30.22,10.0,SSW,10.4,-,N/A,,Overcast,210,2013-01-24 17:38:00
11:53 AM,64.9,60.1,84,30.21,10.0,SW,10.4,-,N/A,,Overcast,220,2013-01-24 17:53:00
12:24 PM,66.2,60.8,83,30.20,10.0,SW,9.2,-,N/A,,Overcast,230,2013-01-24 18:24:00
12:53 PM,66.0,59.0,78,30.20,10.0,SW,8.1,-,N/A,,Overcast,220,2013-01-24 18:53:00
1:53 PM,66.0,59.0,78,30.18,10.0,South,5.8,-,N/A,,Overcast,190,2013-01-24 19:53:00
2:53 PM,66.0,59.0,78,30.16,10.0,South,8.1,-,N/A,,Overcast,180,2013-01-24 20:53:00
3:53 PM,66.0,59.0,78,30.15,10.0,South,5.8,-,N/A,,Overcast,170,2013-01-24 21:53:00
4:53 PM,66.0,59.0,78,30.15,10.0,SE,4.6,-,N/A,,Overcast,130,2013-01-24 22:53:00
5:27 PM,64.4,60.8,88,30.16,10.0,SE,6.9,-,N/A,,Overcast,130,2013-01-24 23:27:00
5:53 PM,63.0,60.1,90,30.16,10.0,East,4.6,-,N/A,,Overcast,100,2013-01-24 23:53:00
6:53 PM,62.1,59.0,90,30.16,10.0,East,8.1,-,N/A,,Overcast,90,2013-01-25 00:53:00
7:49 PM,59.0,57.2,94,30.16,10.0,ENE,4.6,-,N/A,,Overcast,70,2013-01-25 01:49:00
7:53 PM,59.0,57.0,93,30.16,10.0,ENE,3.5,-,N/A,,Overcast,70,2013-01-25 01:53:00
8:13 PM,57.2,55.4,94,30.15,10.0,NE,4.6,-,N/A,,Overcast,50,2013-01-25 02:13:00
8:53 PM,57.0,55.0,93,30.14,10.0,ENE,3.5,-,N/A,,Overcast,60,2013-01-25 02:53:00
9:19 PM,55.4,55.4,100,30.15,9.0,ENE,6.9,-,N/A,,Overcast,60,2013-01-25 03:19:00
9:53 PM,55.0,54.0,96,30.15,6.0,ENE,5.8,-,N/A,,Overcast,70,2013-01-25 03:53:00
10:53 PM,54.0,54.0,100,30.14,4.0,East,3.5,-,N/A,,Overcast,80,2013-01-25 04:53:00
11:53 PM,55.9,54.0,93,30.14,5.0,East,3.5,-,N/A,,Overcast,100,2013-01-25 05:53:00